Regional Weather Roundup
Issued by NWS Little Rock, AR

Home | Current Version | Previous Version | Graphics & Text | Print | Product List | Glossary On
Versions: 1 2 3 4 5 6 7 8 9 10 11 12 13 14 15 16 17 18 19 20 21 22 23 24 25 26 27 28 29 30 31 32 33 34 35 36 37 38 39 40 41 42 43 44 45 46 47 48 49 50
065
ASUS44 KLZK 241000
RWRLZK
ARKANSAS STATE WEATHER ROUNDUP
NATIONAL WEATHER SERVICE LITTLE ROCK AR
ISSUED BY NATIONAL WEATHER SERVICE MEMPHIS TN
400 AM CST FRI FEB 24 2017

NOTE: "FAIR" INDICATES FEW OR NO CLOUDS BELOW 12,000 FEET WITH NO
SIGNIFICANT WEATHER AND/OR OBSTRUCTIONS TO VISIBILITY.

ARZ001-003-010-029-241100-
NORTHWEST ARKANSAS

CITY           SKY/WX    TMP DP  RH WIND       PRES   REMARKS
FORT SMITH     CLEAR     68  52  56 SW10      29.51R
HARRISON       CLEAR     65  54  67 S8        29.51R
BENTONVILLE    PTCLDY    52  45  76 NW10      29.54R
SILOAM SPGS    CLEAR     48  41  76 NW13      29.56R
HIGHFILL       CLEAR     51  45  79 W13       29.53R
$$

ARZ004-005-016-241100-
NORTH CENTRAL ARKANSAS

CITY           SKY/WX    TMP DP  RH WIND       PRES   REMARKS
BATESVILLE     CLEAR     63  52  67 S9G16     29.57S
FLIPPIN        CLEAR     64  50  59 S9G16     29.48S
MTN HOME       CLEAR     63  53  70 SW10      29.50S
$$

ARZ040-041-241100-
WEST CENTRAL ARKANSAS

CITY           SKY/WX    TMP DP  RH WIND       PRES   REMARKS
MOUNT IDA      CLEAR     63  52  67 VRB3      29.57S
$$

ARZ017-025-026-028-241100-
NORTHEAST ARKANSAS

CITY           SKY/WX    TMP DP  RH WIND       PRES   REMARKS
JONESBORO      CLEAR     63  55  75 S17G26    29.58F
NEWPORT        CLEAR     62  55  77 S24       29.56F
WALNUT RIDGE   CLEAR     61  52  72 S20G25    29.55F
BLYTHEVILLE    CLEAR     63  58  83 S15       29.62S
$$

ARZ022-033-042-044-241100-
CENTRAL ARKANSAS

CITY           SKY/WX    TMP DP  RH WIND       PRES   REMARKS
LITTLE ROCK    CLEAR     60  53  77 S14       29.61R
JACKSONVILLE   CLEAR     61  54  75 S14       29.59S
SEARCY         CLEAR     59  54  83 S9        29.62S
HOT SPRINGS    CLEAR     62  54  74 S6        29.61S
RUSSELLVILLE   PTCLDY    64  53  67 VRB5      29.55S
$$

ARZ036-241100-
EAST ARKANSAS

CITY           SKY/WX    TMP DP  RH WIND       PRES   REMARKS
WEST MEMPHIS   CLEAR     62  57  83 S15       29.64S
$$

ARZ050-070-073-241100-
SOUTHWEST ARKANSAS

CITY           SKY/WX    TMP DP  RH WIND       PRES   REMARKS
TEXARKANA      CLEAR     60  56  86 S14       29.62S
EL DORADO      PTCLDY    59  56  89 S10G18    29.64R
DEQUEEN        CLEAR     53  53 100 CALM      29.58R
$$

ARZ056-057-069-241100-
SOUTHEAST ARKANSAS

CITY           SKY/WX    TMP DP  RH WIND       PRES   REMARKS
PINE BLUFF     CLEAR     59  52  77 S9        29.64R
STUTTGART      CLEAR     63  46  55 S15       29.63S
MONTICELLO     CLEAR     59  54  83 S9        29.64F
$$





USA.gov is the U.S. government's official web portal to all federal, state and local government web resources and services.